{"data":{"norad_id":66188,"intl_designator":"2025-243M","name":"STARLINK-35041","alt_names":[],"object_type":"PAYLOAD","status":"ACTIVE","operator":null,"country":"US","launch_date":"2025-10-26","launch_site_code":"AFETR","launch_vehicle":null,"mission":null,"orbit_class":"UNKNOWN","rcs_meters":null,"size_class":null,"mass_kg":null,"dimensions":null,"purposes":["comms"],"wikipedia_slug":null,"has_3d_model":false,"image_url":null,"decayed_at":null,"tle_current":{"epoch":"2026-09-20T14:29:22.784352Z","epoch_age_seconds":91465,"freshness":"FRESH","line1":"1 66188U 25243M   26263.60373593  .00013207  00000+0  40132-3 0  9995","line2":"2 66188  53.1593  57.2290 0001527  85.8578 274.2599 15.34399687 50534","mean_motion":15.34399687,"eccentricity":0.0001527,"inclination_deg":53.1593,"raan_deg":57.229,"arg_perigee_deg":85.8578,"mean_anomaly_deg":274.2599,"bstar":0.00040132,"rev_number":5053,"period_min":93.847777225205,"perigee_km":461.65957406249,"apogee_km":463.74876695596,"semimajor_km":6840.8411705092,"source":"CELESTRAK","updated_at":"2026-09-21T09:00:35.835626Z"}}}